Weather in Krasnoshchekovo

Russia / Orenburg Oblast     51°17′41″N   57°15′32″E
temp.,
°C
wind,
m/s
gust,
m/s
humid.,
%
clouds,
%
prec.,
mm/h
press.,
hPa
HPBL,
m
2 march, tue
tue223:00−15w469795 0.5 102093
02:00−18w469898 0.0 1020109
05:00−20w359999 0.1 102190
08:00−22wsw3398100 0.1 102167
11:00−19w4695100 0.1 1022306
14:00−16wsw479299 0.0 1020372
17:00−13sw51090100 0.0 1018449
20:00−12sw41291100 0.0 1016421
3 march, wed
wed323:00−8sw61590100 0.1 1014599
02:00−6sw81589100 0.4 1011653
05:00−5sw81692100 0.8 1009666
08:00−3sw81494100 0.9 1007775
11:00−2sw91490100 1.4 1007859
14:00−1sw81393100 0.4 1006941
17:000sw71195100 1.1 1004867
20:00−1sw51097100 0.8 1004522
4 march, thu
thu423:00−1sw51196100 1.5 1004523
02:00−2wsw5997100 0.8 1004395
05:00−3wnw5996100 1.6 1005371
08:00−8w6109499 0.3 1007282
11:00−8w6109399 0.4 1011464
14:00−7w71091100 0.1 1012637
17:00−8w51090100 0.2 1014553
20:00−9sw5149176 0.1 1015440
5 march, fri
fri523:00−8sw6159089 0.2 1015570
02:00−4sw91688100 0.1 1013891
05:00−4sw91885100 0.2 1013660
08:00−5sw9198588 0.0 1013598
11:00−3sw10188574 0.0 1013783
14:00−1sw10178127 0.0 1016957
17:00−1sw10188263 0.0 1016887
20:00−2sw91786100 0.1 1016771
6 march, sat
sat623:00−3sw8168699 0.2 1017638
02:00−3sw8158997 0.1 1016483
05:00−4sw7139098 0.1 1016353
08:00−4ssw5129299 0.1 1016324
11:00−2ssw8149099 0.3 1015463
14:000ssw81590100 0.1 1013772
17:00+1sw81787100 0.1 1012829
20:000sw7158898 0.0 1010756